Weather History for K4BM - April, 2014

Change the Weather History Date:

Friday, April 11, 2014

  Actual Average (KAFF) Record (KAFF)
Temperature  
Mean Temperature 42 °F -  
Max Temperature 51 °F 52 °F 73 °F (1998)
Min Temperature 32 °F 28 °F 8 °F (1997)
Degree Days  
Heating Degree Days 24    
Moisture  
Dew Point 12 °F    
Average Humidity 34    
Maximum Humidity 60    
Minimum Humidity 15    
Precipitation  
Precipitation 0.00 in - - ()
Sea Level Pressure  
Sea Level Pressure 30.27 in    
Wind  
Wind Speed 7 mph (SW)    
Max Wind Speed 14 mph    
Max Gust Speed 25 mph    
Visibility 10 miles    
Events      
Averages and records for this station are not official NWS values.
T = Trace of Precipitation, MM = Missing Value Source: NWS Daily Summary

Daily Weather History Graph

Daily Weather History Graph

Search for Another Location

Airport or City:

Trip Planner

Search our weather history database for the weather conditions in past years. The results will help you decide how hot, cold, wet, or windy it might be!

Date:

Astronomy

Apr. 11, 2014 Rise Set
Actual Time 6:31 AM MDT 7:35 PM MDT
Civil Twilight 6:03 AM MDT 8:02 PM MDT
Nautical Twilight 5:31 AM MDT 8:35 PM MDT
Astronomical Twilight 4:57 AM MDT 9:09 PM MDT
Moon 4:20 PM MDT (4/11) 4:26 AM MDT (4/11)
Length of Visible Light 13h 59m
Length of Day
13h 04m
Waxing Gibbous, 87% of the Moon is Illuminated
Apr 11
Waxing Gibbous
Apr 15
Full
Apr 22
Last Quarter
Apr 29
New
May 6
First Quarter

Hourly Weather History & Observations

Time (MDT) Temp. Windchill Dew Point Humidity Pressure Visibility Wind Dir Wind Speed Gust Speed Precip Events Conditions
12:15 AM 32.0 °F 25.6 °F 17.6 °F 55% 30.31 in 10.0 mi SW 6.9 mph - N/A   Clear
12:35 AM 32.0 °F 26.4 °F 17.6 °F 55% 30.31 in 10.0 mi SSW 5.8 mph - N/A   Clear
12:55 AM 32.0 °F 26.4 °F 17.6 °F 55% 30.30 in 10.0 mi SSW 5.8 mph - N/A   Clear
1:15 AM 32.0 °F 26.4 °F 17.6 °F 55% 30.30 in 10.0 mi SSW 5.8 mph - N/A   Clear
1:35 AM 32.0 °F 26.4 °F 17.6 °F 55% 30.30 in 10.0 mi SSW 5.8 mph - N/A   Clear
1:55 AM 32.0 °F 26.4 °F 17.6 °F 55% 30.30 in 10.0 mi SSW 5.8 mph - N/A   Clear
2:15 AM 32.0 °F 25.6 °F 17.6 °F 55% 30.30 in 10.0 mi SW 6.9 mph - N/A   Clear
2:35 AM 32.0 °F 25.6 °F 17.6 °F 55% 30.30 in 10.0 mi SW 6.9 mph - N/A   Clear
2:55 AM 32.0 °F 25.6 °F 19.4 °F 60% 30.28 in 10.0 mi SW 6.9 mph - N/A   Clear
3:15 AM 32.0 °F 25.6 °F 17.6 °F 55% 30.28 in 10.0 mi WSW 6.9 mph - N/A   Clear
3:35 AM 32.0 °F 26.4 °F 17.6 °F 55% 30.28 in 10.0 mi WSW 5.8 mph - N/A   Clear
3:55 AM 32.0 °F 26.4 °F 17.6 °F 55% 30.29 in 10.0 mi WSW 5.8 mph - N/A   Clear
4:15 AM 32.0 °F 26.4 °F 15.8 °F 51% 30.29 in 10.0 mi WSW 5.8 mph - N/A   Clear
4:35 AM 32.0 °F 26.4 °F 15.8 °F 51% 30.29 in 10.0 mi WSW 5.8 mph - N/A   Clear
4:55 AM 32.0 °F 26.4 °F 14.0 °F 48% 30.30 in 10.0 mi WSW 5.8 mph - N/A   Clear
5:15 AM 32.0 °F 25.6 °F 15.8 °F 51% 30.30 in 10.0 mi WSW 6.9 mph - N/A   Clear
5:34 AM 32.0 °F 26.4 °F 14.0 °F 48% 30.30 in 10.0 mi WSW 5.8 mph - N/A   Clear
5:55 AM 32.0 °F 27.5 °F 14.0 °F 48% 30.30 in 10.0 mi WSW 4.6 mph - N/A   Clear
6:15 AM 32.0 °F 26.4 °F 14.0 °F 48% 30.30 in 10.0 mi WSW 5.8 mph - N/A   Clear
6:55 AM 32.0 °F 27.5 °F 14.0 °F 48% 30.30 in 10.0 mi WSW 4.6 mph - N/A   Clear
7:15 AM 32.0 °F 26.4 °F 14.0 °F 48% 30.30 in 10.0 mi WSW 5.8 mph - N/A   Clear
7:34 AM 32.0 °F 27.5 °F 14.0 °F 48% 30.30 in 10.0 mi WSW 4.6 mph - N/A   Clear
7:55 AM 32.0 °F 28.7 °F 12.2 °F 44% 30.31 in 10.0 mi SW 3.5 mph - N/A   Clear
8:14 AM 33.8 °F - 12.2 °F 41% 30.31 in 10.0 mi Calm Calm - N/A   Clear
8:34 AM 35.6 °F 32.8 °F 12.2 °F 38% 30.31 in 10.0 mi SW 3.5 mph - N/A   Clear
8:54 AM 35.6 °F 31.7 °F 12.2 °F 38% 30.31 in 10.0 mi SSW 4.6 mph - N/A   Clear
9:14 AM 37.4 °F - 12.2 °F 36% 30.31 in 10.0 mi Calm Calm - N/A   Clear
9:34 AM 39.2 °F 37.0 °F 12.2 °F 33% 30.32 in 10.0 mi SW 3.5 mph - N/A   Clear
9:54 AM 39.2 °F 35.0 °F 12.2 °F 33% 30.32 in 10.0 mi SSW 5.8 mph - N/A   Clear
10:14 AM 41.0 °F 38.0 °F 12.2 °F 31% 30.32 in 10.0 mi SW 4.6 mph - N/A   Clear
10:34 AM 42.8 °F 40.1 °F 12.2 °F 29% 30.32 in 10.0 mi SW 4.6 mph - N/A   Clear
10:54 AM 44.6 °F 40.2 °F 14.0 °F 29% 30.32 in 10.0 mi SSW 8.1 mph - N/A   Clear
11:14 AM 44.6 °F 40.7 °F 14.0 °F 29% 30.32 in 10.0 mi SSW 6.9 mph - N/A   Clear
11:34 AM 46.4 °F 43.5 °F 14.0 °F 27% 30.32 in 10.0 mi SSW 5.8 mph - N/A   Clear
11:54 AM 46.4 °F 43.5 °F 10.4 °F 23% 30.32 in 10.0 mi SSW 5.8 mph - N/A   Clear
12:14 PM 50.0 °F - 14.0 °F 24% 30.31 in 10.0 mi SW 5.8 mph - N/A   Clear
12:33 PM 50.0 °F - 12.2 °F 22% 30.30 in 10.0 mi SSW 6.9 mph - N/A   Clear
12:54 PM 50.0 °F - 5.0 °F 16% 30.29 in 10.0 mi SSW 10.4 mph 20.7 mph N/A   Clear
1:14 PM 50.0 °F - 6.8 °F 17% 30.28 in 10.0 mi SW 10.4 mph 20.7 mph N/A   Clear
1:35 PM 50.0 °F - 5.0 °F 16% 30.28 in 10.0 mi WSW 6.9 mph 20.7 mph N/A   Clear
1:54 PM 51.8 °F - 10.4 °F 19% 30.28 in 10.0 mi SW 5.8 mph - N/A   Clear
2:14 PM 51.8 °F - 10.4 °F 19% 30.28 in 10.0 mi West 9.2 mph 17.3 mph N/A   Clear
2:35 PM 50.0 °F - 8.6 °F 19% 30.26 in 10.0 mi West 8.1 mph 20.7 mph N/A   Clear
2:54 PM 51.8 °F - 10.4 °F 19% 30.26 in 10.0 mi SSW 9.2 mph 23.0 mph N/A   Clear
3:15 PM 51.8 °F - 10.4 °F 19% 30.25 in 10.0 mi SSW 9.2 mph - N/A   Clear
3:35 PM 51.8 °F - 10.4 °F 19% 30.24 in 10.0 mi West 4.6 mph 17.3 mph N/A   Clear
3:54 PM 51.8 °F - 8.6 °F 18% 30.24 in 10.0 mi SW 8.1 mph - N/A   Clear
4:13 PM 51.8 °F - 5.0 °F 15% 30.23 in 10.0 mi SW 9.2 mph 17.3 mph N/A   Clear
4:34 PM 50.0 °F - 6.8 °F 17% 30.23 in 10.0 mi SW 6.9 mph 18.4 mph N/A   Clear
4:55 PM 50.0 °F - 5.0 °F 16% 30.22 in 10.0 mi SW 9.2 mph 20.7 mph N/A   Clear
5:14 PM 48.2 °F - 6.8 °F 19% 30.23 in 10.0 mi SW 8.1 mph 19.6 mph N/A   Clear
5:35 PM 46.4 °F 42.4 °F 8.6 °F 22% 30.23 in 10.0 mi WSW 8.1 mph - N/A   Clear
5:54 PM 48.2 °F - 8.6 °F 20% 30.23 in 10.0 mi SW 6.9 mph - N/A   Clear
6:15 PM 46.4 °F 42.9 °F 8.6 °F 22% 30.23 in 10.0 mi SW 6.9 mph - N/A   Clear
6:35 PM 44.6 °F 40.2 °F 5.0 °F 20% 30.23 in 10.0 mi WSW 8.1 mph - N/A   Clear
6:55 PM 42.8 °F 38.6 °F 5.0 °F 21% 30.22 in 10.0 mi WSW 6.9 mph - N/A   Clear
7:13 PM 42.8 °F 37.5 °F 5.0 °F 21% 30.21 in 10.0 mi WSW 9.2 mph - N/A   Clear
7:33 PM 41.0 °F 34.3 °F 6.8 °F 24% 30.21 in 10.0 mi West 11.5 mph 23.0 mph N/A   Clear
7:54 PM 41.0 °F 35.2 °F 8.6 °F 26% 30.21 in 10.0 mi WSW 9.2 mph 18.4 mph N/A   Clear
8:14 PM 41.0 °F 35.8 °F 8.6 °F 26% 30.21 in 10.0 mi WSW 8.1 mph 20.7 mph N/A   Clear
8:34 PM 41.0 °F 34.3 °F 8.6 °F 26% 30.22 in 10.0 mi West 11.5 mph 21.9 mph N/A   Clear
8:54 PM 41.0 °F 33.9 °F 8.6 °F 26% 30.22 in 10.0 mi West 12.7 mph 23.0 mph N/A   Clear
9:14 PM 41.0 °F 33.9 °F 8.6 °F 26% 30.21 in 10.0 mi West 12.7 mph 25.3 mph N/A   Clear
9:34 PM 41.0 °F 34.7 °F 10.4 °F 29% 30.21 in 10.0 mi West 10.4 mph 19.6 mph N/A   Clear
9:53 PM 39.2 °F 32.0 °F 10.4 °F 31% 30.21 in 10.0 mi West 11.5 mph 20.7 mph N/A   Clear
10:14 PM 39.2 °F 33.0 °F 10.4 °F 31% 30.20 in 10.0 mi West 9.2 mph 17.3 mph N/A   Clear
10:34 PM 37.4 °F 32.1 °F 10.4 °F 33% 30.19 in 10.0 mi WSW 6.9 mph 16.1 mph N/A   Clear
10:54 PM 37.4 °F 30.8 °F 10.4 °F 33% 30.19 in 10.0 mi West 9.2 mph 17.3 mph N/A   Clear
11:14 PM 37.4 °F 31.4 °F 10.4 °F 33% 30.19 in 10.0 mi West 8.1 mph 24.2 mph N/A   Clear
11:34 PM 37.4 °F 29.8 °F 12.2 °F 36% 30.18 in 10.0 mi West 11.5 mph 20.7 mph N/A   Clear
11:54 PM 37.4 °F 28.9 °F 12.2 °F 36% 30.17 in 10.0 mi West 13.8 mph 24.2 mph N/A   Clear